TimeCDT,TemperatureF,Dew PointF,Humidity,Sea Level PressureIn,VisibilityMPH,Wind Direction,Wind SpeedMPH,Gust SpeedMPH,PrecipitationIn,Events,Conditions,WindDirDegrees,DateUTC
12:15 AM,31.6,28.8,89,30.01,10.0,Calm,Calm,-,N/A,,Clear,0,2011-10-22 05:15:00
12:35 AM,31.1,28.2,89,30.00,10.0,Calm,Calm,-,N/A,,Clear,0,2011-10-22 05:35:00
12:55 AM,30.6,27.9,90,30.00,10.0,Calm,Calm,-,N/A,,Clear,0,2011-10-22 05:55:00
1:15 AM,30.2,27.7,90,30.00,10.0,Calm,Calm,-,N/A,,Clear,0,2011-10-22 06:15:00
1:35 AM,29.7,27.9,93,29.99,10.0,Calm,Calm,-,N/A,,Clear,0,2011-10-22 06:35:00
2:15 AM,29.3,27.3,92,29.99,10.0,Calm,Calm,-,N/A,,Clear,0,2011-10-22 07:15:00
2:35 AM,29.3,27.1,92,29.99,10.0,Calm,Calm,-,N/A,,Clear,0,2011-10-22 07:35:00
2:55 AM,28.6,27.0,94,29.99,10.0,Calm,Calm,-,N/A,,Clear,0,2011-10-22 07:55:00
3:15 AM,27.9,26.8,96,29.99,10.0,Calm,Calm,-,N/A,,Clear,0,2011-10-22 08:15:00
3:35 AM,28.4,27.3,96,29.99,10.0,Calm,Calm,-,N/A,,Clear,0,2011-10-22 08:35:00
3:55 AM,28.0,26.8,95,30.00,10.0,Calm,Calm,-,N/A,,Clear,0,2011-10-22 08:55:00
4:15 AM,28.0,26.6,94,30.00,10.0,Calm,Calm,-,N/A,,Clear,0,2011-10-22 09:15:00
4:35 AM,27.5,26.6,96,30.00,10.0,Calm,Calm,-,N/A,,Clear,0,2011-10-22 09:35:00
4:55 AM,27.7,26.6,96,30.01,10.0,Calm,Calm,-,N/A,,Clear,0,2011-10-22 09:55:00
5:35 AM,27.3,26.1,95,30.02,10.0,Calm,Calm,-,N/A,,Clear,0,2011-10-22 10:35:00
5:55 AM,27.1,25.7,94,30.02,10.0,Calm,Calm,-,N/A,,Clear,0,2011-10-22 10:55:00
6:35 AM,27.0,25.5,94,30.03,10.0,Calm,Calm,-,N/A,,Clear,0,2011-10-22 11:35:00
6:55 AM,26.6,25.2,94,30.03,10.0,Calm,Calm,-,N/A,,Clear,0,2011-10-22 11:55:00
7:15 AM,26.2,25.3,96,30.04,10.0,Calm,Calm,-,N/A,,Clear,0,2011-10-22 12:15:00
7:35 AM,26.6,25.5,96,30.05,10.0,Calm,Calm,-,N/A,,Clear,0,2011-10-22 12:35:00
7:55 AM,26.4,25.3,96,30.06,10.0,Calm,Calm,-,N/A,,Clear,0,2011-10-22 12:55:00
8:15 AM,27.9,26.4,94,30.07,10.0,Calm,Calm,-,N/A,,Clear,0,2011-10-22 13:15:00
8:35 AM,29.7,27.9,93,30.07,10.0,Calm,Calm,-,N/A,,Clear,0,2011-10-22 13:35:00
9:15 AM,34.7,31.5,88,30.07,10.0,Calm,Calm,-,N/A,,Clear,0,2011-10-22 14:15:00
9:35 AM,37.6,32.4,81,30.08,10.0,Calm,Calm,-,N/A,,Clear,0,2011-10-22 14:35:00
9:55 AM,40.5,32.9,74,30.08,10.0,Calm,Calm,-,N/A,,Clear,0,2011-10-22 14:55:00
10:35 AM,46.8,34.0,61,30.08,10.0,NW,5.8,-,N/A,,Clear,310,2011-10-22 15:35:00
10:55 AM,49.3,34.7,57,30.08,10.0,NW,5.8,-,N/A,,Clear,310,2011-10-22 15:55:00
11:15 AM,51.3,34.9,54,30.08,10.0,NW,6.9,-,N/A,,Clear,320,2011-10-22 16:15:00
11:35 AM,52.3,35.2,52,30.08,10.0,NW,4.6,-,N/A,,Clear,320,2011-10-22 16:35:00
11:55 AM,54.3,36.0,50,30.08,10.0,North,5.8,-,N/A,,Clear,360,2011-10-22 16:55:00
12:15 PM,55.9,36.1,47,30.07,10.0,North,4.6,-,N/A,,Clear,350,2011-10-22 17:15:00
12:35 PM,57.4,36.0,45,30.06,10.0,North,4.6,-,N/A,,Clear,350,2011-10-22 17:35:00
1:15 PM,58.3,36.0,43,30.05,10.0,NW,8.1,-,N/A,,Clear,310,2011-10-22 18:15:00
1:35 PM,58.6,35.8,42,30.05,10.0,NW,8.1,-,N/A,,Clear,310,2011-10-22 18:35:00
1:55 PM,59.4,35.6,41,30.04,10.0,North,5.8,-,N/A,,Clear,360,2011-10-22 18:55:00
2:15 PM,59.9,33.8,38,30.04,10.0,NNW,6.9,-,N/A,,Clear,330,2011-10-22 19:15:00
2:35 PM,60.3,32.7,35,30.04,10.0,WNW,10.4,-,N/A,,Clear,300,2011-10-22 19:35:00
2:55 PM,60.4,32.4,35,30.04,10.0,NNW,5.8,-,N/A,,Clear,330,2011-10-22 19:55:00
3:15 PM,60.8,32.4,34,30.03,10.0,NNW,5.8,-,N/A,,Clear,340,2011-10-22 20:15:00
3:35 PM,61.0,32.0,34,30.03,10.0,NNW,10.4,-,N/A,,Clear,330,2011-10-22 20:35:00
3:55 PM,60.8,31.5,33,30.03,10.0,WNW,9.2,16.1,N/A,,Clear,290,2011-10-22 20:55:00
4:15 PM,60.8,31.3,33,30.03,10.0,NNW,4.6,-,N/A,,Clear,330,2011-10-22 21:15:00
4:35 PM,60.4,30.9,33,30.03,10.0,NW,4.6,-,N/A,,Clear,310,2011-10-22 21:35:00
4:55 PM,59.7,30.9,34,30.03,10.0,NNW,6.9,-,N/A,,Clear,330,2011-10-22 21:55:00
5:15 PM,58.1,31.5,36,30.03,10.0,NW,5.8,-,N/A,,Clear,320,2011-10-22 22:15:00
5:35 PM,56.3,31.5,39,30.03,10.0,WNW,3.5,-,N/A,,Clear,300,2011-10-22 22:35:00
5:55 PM,53.6,32.0,44,30.03,10.0,Calm,Calm,-,N/A,,Clear,0,2011-10-22 22:55:00
6:15 PM,49.3,32.4,52,30.04,10.0,Calm,Calm,-,N/A,,Clear,0,2011-10-22 23:15:00
6:35 PM,46.4,32.7,59,30.04,10.0,Calm,Calm,-,N/A,,Clear,0,2011-10-22 23:35:00
6:55 PM,43.7,33.1,66,30.05,10.0,Calm,Calm,-,N/A,,Clear,0,2011-10-22 23:55:00
7:15 PM,41.9,33.3,71,30.05,10.0,Calm,Calm,-,N/A,,Clear,0,2011-10-23 00:15:00
7:35 PM,39.0,32.9,79,30.05,10.0,Calm,Calm,-,N/A,,Clear,0,2011-10-23 00:35:00
7:55 PM,37.8,31.5,78,30.05,10.0,Calm,Calm,-,N/A,,Clear,0,2011-10-23 00:55:00
8:15 PM,36.9,31.3,80,30.04,10.0,Calm,Calm,-,N/A,,Clear,0,2011-10-23 01:15:00
8:55 PM,34.0,30.4,87,30.05,10.0,Calm,Calm,-,N/A,,Clear,0,2011-10-23 01:55:00
9:15 PM,33.1,30.0,89,30.05,10.0,Calm,Calm,-,N/A,,Clear,0,2011-10-23 02:15:00
9:35 PM,32.2,29.8,91,30.05,10.0,Calm,Calm,-,N/A,,Clear,0,2011-10-23 02:35:00
9:55 PM,31.6,28.8,89,30.05,10.0,Calm,Calm,-,N/A,,Clear,0,2011-10-23 02:55:00
10:15 PM,31.5,28.9,90,30.05,10.0,Calm,Calm,-,N/A,,Clear,0,2011-10-23 03:15:00
10:35 PM,30.4,27.9,90,30.04,10.0,Calm,Calm,-,N/A,,Clear,0,2011-10-23 03:35:00
10:55 PM,30.4,28.0,91,30.03,10.0,Calm,Calm,-,N/A,,Clear,0,2011-10-23 03:55:00
11:15 PM,30.2,27.7,90,30.02,10.0,Calm,Calm,-,N/A,,Clear,0,2011-10-23 04:15:00
11:35 PM,29.8,27.5,91,30.02,10.0,Calm,Calm,-,N/A,,Clear,0,2011-10-23 04:35:00
11:55 PM,29.7,27.3,91,30.02,10.0,Calm,Calm,-,N/A,,Clear,0,2011-10-23 04:55:00